Regional Weather Roundup
Issued by NWS Goodland, KS

Home | Current Version | Previous Version | Text Only | Print | Product List | Glossary On
Versions: 1 2 3 4 5 6 7 8 9 10 11 12 13 14 15 16 17 18 19 20 21 22 23 24 25 26 27 28 29 30 31 32 33 34 35 36 37 38 39 40 41 42 43 44 45 46 47 48 49 50
000
ASUS43 KGLD 261108
RWRGLD

GOODLAND FORECAST AREA HOURLY WEATHER ROUNDUP
NATIONAL WEATHER SERVICE GOODLAND KS
400 AM MST WED NOV 26 2014

...OFFICIAL OBSERVATIONS...

CITY           SKY/WX    TMP DP  RH WIND       PRES   REMARKS
GOODLAND KS    FLURRIES  32  30  92 NW24G31   30.13S WCI  19
HILL CITY KS   MOCLDY    39  29  67 W9        30.08R
IMPERIAL NEB   CLOUDY    34  23  64 NW15      30.12R
MCCOOK NEB     CLOUDY    37  25  61 NW14      30.08R
AKRON CO       LGT SNOW  27  26  96 W15       30.15R VSB 3/4 WCI  15
BURLINGTON CO  LGT SNOW  30  26  85 N16G28    30.13S FOG     WCI  19
LIMON CO       CLOUDY    24  22  91 N10       30.16R WCI  14
$$

...UNOFFICIAL OBSERVATIONS...

CITY           SKY/WX    TMP DP  RH WIND       PRES   REMARKS
COLBY KS       CLOUDY    36  34  93 W21       30.11R
GOVE KS          N/A     36  32  85 MISG        N/A
NORTON KS      CLOUDY    37  25  60 W16G24    30.05R
SHARON SPRINGS   N/A     31  28  89 NW10        N/A
TRIBUNE KS     CLEAR     32  32 100 NW8       30.16R
TRENTON NEB      N/A     36  32  85 NW14        N/A
YUMA CO          N/A     29  26  88 NW18        N/A  WCI  17
$$



USA.gov is the U.S. government's official web portal to all federal, state and local government web resources and services.